Weather in Nikolskoye

Russia / Tomsk District     57°11′40″N   84°21′52″E
temp.,
°C
wind,
m/s
gust,
m/s
humid.,
%
clouds,
%
prec.,
mm/h
press.,
hPa
HPBL,
m
24 may, tue
tue2401:00+11sse2253100 0.0 102124
04:00+10sse225598 0.0 102232
07:00+12s2660100 0.0 1022161
10:00+18ssw354075 0.0 1021650
13:00+23ssw343390 0.0 10201435
16:00+25sw22325 0.0 10191861
19:00+24ene01340 0.0 10181692
22:00+18ese22512 0.0 101911
25 may, wed
wed2501:00+15sse22643 0.0 101923
04:00+14s11642 0.0 101910
07:00+17n01590 0.0 101959
10:00+23nnw11423 0.0 1018520
13:00+26n34344 0.0 10182135
16:00+28n353111 0.0 10172682
19:00+26n563835 0.0 10171378
22:00+19nne36610 0.0 1018107
26 may, thu
thu2601:00+16nne25731 0.0 101885
04:00+14ne37855 0.0 1019157
07:00+16ne37744 0.0 1020314
10:00+20ne45495 0.0 10191218
13:00+23ne45345 0.0 10181810
16:00+25ne442956 0.0 10162006
19:00+23ne3535100 0.0 1015740
22:00+16ne395123 0.0 1015160
27 may, fri
fri2701:00+13ene3956100 0.0 1015152
04:00+12ne2460100 0.0 101490
07:00+14ne265991 0.0 1014181
10:00+20ne453797 0.0 10131243
13:00+23ene45283 0.0 10121947
16:00+24ene442317 0.0 10122077
19:00+22e342759 0.0 10111671
22:00+15ese33465 0.0 101237
28 may, sat
sat2801:00+13ese412605 0.0 1012272
04:00+12ese396536 0.0 1012236
07:00+13ese39645 0.0 1012292
10:00+20ese57425 0.0 1011938
13:00+23ese563168 0.0 10111774
16:00+22ese353490 0.0 10101463
19:00+23ese33345 0.0 10101514
22:00+16ene345541 0.0 101051